Location: Axtheid
(49.6213°N, 11.8205°E)
Time: 08:45:34
(UTC+00:00)

GEOS 3 Rocket - Pass Details

Date: 18 February 2020
Orbit: 778 x 842 km, 115.0° (Epoch: 31 March)

Event Time Altitude Azimuth Distance (km) Brightness Sun altitude
Rises 03:46:51 0° 43° (NE) 3,367 7.7 -25.1°
Reaches altitude 10° 03:49:12 10° 48° (NE) 2,438 6.9 -24.7°
Maximum altitude 03:54:25 57° 126° (SE) 980 4.2 -23.9°
Enters shadow 03:57:22 26° 196° (SSW) 1,600 4.9 -23.4°
